User: anonymous   Login
Location: Unspecified
(0.0000°N, 0.0000°E)
Time: 19:28:27
(UTC+02:00)
Language:

DELTA 2 R/B (1) - Orbit

View from above orbital plane
View from above orbital plane
View from above satellite
View from above satellite

Ground track
Ground track

The orbit data is extracted from the following two-line orbital elements,

1 27665U 03005C   15211.97674517 -.00000088  00000-0 -87538-6 0  9995
2 27665 039.5769 009.1936 0007235 127.4199 023.2978 14.28351876652644
Epoch (UTC): 30 July 2015 23:26:30
Eccentricity: 0.0007235
inclination: 39.5769°
perigee height: 792 km
apogee height: 802 km
right ascension of ascending node: 9.1936°
argument of perigee: 127.4199°
revolutions per day: 14.28351876
mean anomaly at epoch: 23.2978°
orbit number at epoch: 65264

The dashed part of the orbit path shows where the satellite is in the earth's shadow,  

DLR